Negaunee, MI (49866)

9:34 PM EST on February 07, 2016 (GMT -0500)
Negaunee, Michigan | | Change Station
CLOSE
Current Station
Personal Weather Station
Location: Negaunee, MI
Elevation: 1305 ft
Nearby Weather Stations

Elev 1305 ft 46.50 °N, 87.61 °W | Updated 13 minutes ago

Snow
Snow
32.4 °F
Feels Like 28 °F
N
4.2
Wind Variable Wind from SSW

Today
High -- | Low -- °F
--% Chance of Precip.
Yesterday
High -- | Low -- °F
Precip. -- in
Pressure 29.53 in
Visibility 5.0 miles
Clouds Scattered Clouds 500 ft
Scattered Clouds 1600 ft
Overcast 3900 ft
Windchill 28 °F
Dew Point 30 °F
Humidity 92%
Rainfall 0.02 in
Snow Depth Not available.
8:06 AM 6:02 PM
Waning Crescent, 0% visible
METAR KSAW 080147Z 20007KT 5SM -SN SCT005 SCT016 OVC039 00/00 A2953
Pressure 29.53 in
Visibility 5.0 miles
Clouds Scattered Clouds 500 ft
Scattered Clouds 1600 ft
Overcast 3900 ft
Windchill 28 °F
Dew Point 30 °F
Humidity 92%
Rainfall 0.02 in
Snow Depth Not available.
8:06 AM 6:02 PM
Waning Crescent, 0% visible
METAR KSAW 080147Z 20007KT 5SM -SN SCT005 SCT016 OVC039 00/00 A2953

10-Day Weather Forecast

Almanac

Astronomy

Feb. 07, 2016 Rise Set
Actual Time
Civil Twilight
Nautical Twilight
Astronomical Twilight
Moon
Length of Visible Light
Length of Day
Tomorrow will be .
, % of the Moon is Illuminated

Today's Extremes

State Highs State Lows

Community

WunderPhotos

Upload Photos

1,891,373 photos uploaded!

WunderBlog® & News

Nearby

Air Quality

  Air Quality AQ Index Pollutant
Not available.

Snow Depth

Station Depth Elevation

Earthquake Activity

City Distance Mag. Time & Date
Minimum magnitude displayed is 2.5.

Coastal Water Temperatures

Place Temperature

Stations

Nearby Weather Stations

Station Location Temp. Windchill Dew Point Humidity Wind Precip. Elev Updated Type
                   

Watches & Warnings

There are currently no watches in effect.